This is the latest recevied weather packets stored in our database for station/object K3SV. If no packets are shown the sender has not sent any weather packets the latest 1 day(s).
| Time | Temp. | Humidity | Pressure | Rain* | Wind** | Luminosity | Snow |
|---|---|---|---|---|---|---|---|
| 1777985524 | 22.78° C | 82% | 1015.9 hPa | 0 mm | 0 m/s | 218 W/m² | - |
| 1777985220 | 22.22° C | 83% | 1015.9 hPa | 0 mm | 0 m/s | 194 W/m² | - |
| 1777984917 | 21.67° C | 84% | 1016.1 hPa | 0 mm | 0.45 m/s, 77° | 179 W/m² | - |
| 1777984613 | 21.11° C | 86% | 1015.9 hPa | 0 mm | 0.45 m/s, 67° | 168 W/m² | - |
| 1777984310 | 20° C | 88% | 1016.1 hPa | 0 mm | 0.45 m/s, 60° | 154 W/m² | - |
| 1777984006 | 19.44° C | 90% | 1015.9 hPa | 0 mm | 0.89 m/s, 63° | 132 W/m² | - |
| 1777983703 | 19.44° C | 91% | 1015.9 hPa | 0 mm | 0.89 m/s, 88° | 68 W/m² | - |
| 1777983400 | 19.44° C | 91% | 1016.1 hPa | 0 mm | 0 m/s | 76 W/m² | - |
| 1777983097 | 18.89° C | 92% | 1016.2 hPa | 0 mm | 0.45 m/s, 25° | 79 W/m² | - |
| 1777982793 | 18.89° C | 92% | 1016.2 hPa | 0 mm | 0 m/s | 64 W/m² | - |
| 1777982489 | 18.33° C | 93% | 1016.2 hPa | 0 mm | 0 m/s | 53 W/m² | - |
| 1777982183 | 18.33° C | 92% | 1016.2 hPa | 0 mm | 0.89 m/s, 82° | 41 W/m² | - |
| 1777981881 | 18.33° C | 93% | 1016 hPa | 0 mm | 0.45 m/s, 78° | 50 W/m² | - |
| 1777981578 | 18.33° C | 93% | 1016.1 hPa | 0 mm | 0.45 m/s, 59° | 52 W/m² | - |
| 1777981274 | 17.78° C | 93% | 1016 hPa | 0 mm | 0 m/s | 54 W/m² | - |
| 1777980971 | 17.78° C | 93% | 1015.8 hPa | 0 mm | 0.89 m/s, 60° | 52 W/m² | - |
| 1777980668 | 17.78° C | 94% | 1015.8 hPa | 0 mm | 0.45 m/s, 21° | 37 W/m² | - |
| 1777980364 | 17.78° C | 94% | 1015.9 hPa | 0 mm | 0.45 m/s, 27° | 31 W/m² | - |
| 1777980062 | 17.22° C | 95% | 1015.4 hPa | 0 mm | 0 m/s | 19 W/m² | - |
| 1777979756 | 17.22° C | 95% | 1015.5 hPa | 0 mm | 0.45 m/s, 25° | 17 W/m² | - |
| 1777979452 | 16.67° C | 95% | 1015.3 hPa | 0 mm | 0 m/s | 14 W/m² | - |
| 1777979149 | 16.67° C | 96% | 1015.2 hPa | 0 mm | 0 m/s | 12 W/m² | - |
| 1777978845 | 16.67° C | 96% | 1015.2 hPa | 0 mm | 0 m/s | 9 W/m² | - |
| 1777978543 | 16.67° C | 95% | 1015.2 hPa | 0 mm | 0 m/s | 7 W/m² | - |
| 1777978238 | 16.67° C | 95% | 1015.1 hPa | 0 mm | 0 m/s | 4 W/m² | - |
* Rain latest hour (hover to see other rain measurements)
** Current wind speed in m/s (hover to see current wind gust speed)